CARTOSAT-2B             
1 36795U 10035A   19257.74115312  .00000034  00000-0  11747-4 0  9998
2 36795  97.9622 315.9154 0013131 258.0739 101.8994 14.78666410495292
STUDSAT                 
1 36796U 10035B   19257.93178067  .00000192  00000-0  27472-4 0  9993
2 36796  98.1208  34.5677 0012903 175.6557 184.4773 14.87662331497098
AISSAT 1                
1 36797U 10035C   19257.90273901  .00000124  00000-0  20722-4 0  9990
2 36797  98.1344  34.7966 0010744 197.5449 162.5396 14.86208682496919
ALSAT 2A                
1 36798U 10035D   19257.78808568  .00000011  00000-0  10414-4 0  9992
2 36798  98.0099 313.6421 0001269  73.9438 286.1898 14.66463994491202
TISAT 1                 
1 36799U 10035E   19257.92454514  .00000346  00000-0  40922-4 0  9995
2 36799  98.1672  53.0641 0012906 151.5459 208.6466 14.91153058497713
PSLV R/B                
1 36800U 10035F   19257.86777445  .00000528  00000-0  54412-4 0  9993
2 36800  98.1399  59.8632 0022998 147.5026 212.7615 14.94572912499310
PSLV DEB                
1 36801U 10035G   19257.84375272  .00072297  00000-0  51847-3 0  9994
2 36801  98.0509 193.8471 0005753 104.4743 255.7158 15.73443492506081